User: anonymous   Login
Location: Holcomb Observatory
(44.4922°N, 73.1654°W)
Time: 04:55:16
(UTC-04:00)
Language:

SL-16 R/B - Orbit

View from above orbital plane
View from above orbital plane
View from above satellite
View from above satellite

Ground track
Ground track

The orbit data is extracted from the following two-line orbital elements,

1 27006U 01056F   18111.93477799 -.00000046 +00000-0 -27872-5 0  9997
2 27006 099.3578 249.3178 0014069 223.4667 244.5370 13.70966646818710
Epoch (UTC): 21 April 2018 22:26:04
Eccentricity: 0.0014069
inclination: 99.3578°
perigee height: 986 km
apogee height: 1006 km
right ascension of ascending node: 249.3178°
argument of perigee: 223.4667°
revolutions per day: 13.70966646
mean anomaly at epoch: 244.5370°
orbit number at epoch: 81871

The dashed part of the orbit path shows where the satellite is in the earth's shadow,  

DLR